When you browse on this site, cookies collect data to enhance your experience and personalize the content and advertising you see.
Visit our Privacy Policy to learn more. By continuing to use the site, you agree to this use of cookies and data.
  • In Hungary
  • List of Countries
  • For 7 days
  • Water Temperature
  • Satellite Maps
  • Weather Map
  • News
  • Weather Widgets
  • user-avatar
    Login

    Hourly Weather Yenifakılı

    Today, 23 February, Saturday

    Time Temperature Precipitation Wind Pressure Humidity
    00:00 +3°C° 0 mm 3 mps 668 mmHg 67%
    01:00 +2°C° 0 mm 3 mps 669 mmHg 71%
    02:00 +2°C° 0 mm 3 mps 669 mmHg 73%
    03:00 +2°C° 0 mm 3 mps 669 mmHg 74%
    04:00 +1°C° 0 mm 3 mps 669 mmHg 76%
    05:00 +1°C° 0 mm 3 mps 669 mmHg 78%
    06:00 +2°C° 0 mm 3 mps 669 mmHg 75%
    07:00 +2°C° 0 mm 3 mps 670 mmHg 72%
    08:00 +3°C° 0 mm 3 mps 670 mmHg 69%
    09:00 +5°C° 0 mm 3 mps 671 mmHg 61%
    10:00 +7°C° 0 mm 3 mps 671 mmHg 53%
    11:00 +8°C° 0 mm 4 mps 671 mmHg 45%
    12:00 +10°C° 0 mm 3 mps 671 mmHg 41%
    13:00 +11°C° 0 mm 3 mps 671 mmHg 38%
    14:00 +11°C° 0 mm 3 mps 671 mmHg 34%
    15:00 +12°C° 0 mm 2 mps 671 mmHg 37%
    16:00 +12°C° 0 mm 2 mps 671 mmHg 39%
    17:00 +11°C° 0 mm 1 mps 671 mmHg 42%
    18:00 +9°C° 0.1 mm 2 mps 671 mmHg 47%
    19:00 +8°C° 0.1 mm 2 mps 671 mmHg 53%
    20:00 +7°C° 0.1 mm 2 mps 672 mmHg 59%
    21:00 +7°C° 0 mm 2 mps 672 mmHg 62%
    22:00 +6°C° 0 mm 2 mps 672 mmHg 65%
    23:00 +6°C° 0 mm 2 mps 672 mmHg 68%

    Tomorrow, 24 February, Sunday

    Time Temperature Precipitation Wind Pressure Humidity
    00:00 +5°C° 0 mm 2 mps 672 mmHg 69%
    01:00 +5°C° 0 mm 2 mps 672 mmHg 70%
    02:00 +4°C° 0 mm 2 mps 672 mmHg 71%
    03:00 +4°C° 0 mm 2 mps 672 mmHg 72%
    04:00 +4°C° 0 mm 2 mps 672 mmHg 73%
    05:00 +3°C° 0 mm 2 mps 672 mmHg 74%
    06:00 +4°C° 0 mm 2 mps 672 mmHg 72%
    07:00 +4°C° 0 mm 2 mps 672 mmHg 69%
    08:00 +4°C° 0 mm 2 mps 672 mmHg 67%
    09:00 +7°C° 0 mm 1 mps 673 mmHg 61%
    10:00 +8°C° 0 mm 1 mps 673 mmHg 56%
    11:00 +9°C° 0 mm 1 mps 673 mmHg 50%
    12:00 +10°C° 0 mm 1 mps 673 mmHg 47%
    13:00 +10°C° 0 mm 0 mps 673 mmHg 45%
    14:00 +10°C° 0 mm 0 mps 673 mmHg 42%
    15:00 +11°C° 0.1 mm 1 mps 673 mmHg 44%
    16:00 +10°C° 0.1 mm 2 mps 673 mmHg 45%
    17:00 +10°C° 0.1 mm 3 mps 673 mmHg 47%
    18:00 +9°C° 0 mm 3 mps 673 mmHg 53%
    19:00 +7°C° 0 mm 3 mps 673 mmHg 59%
    20:00 +5°C° 0 mm 4 mps 674 mmHg 65%
    21:00 +5°C° 0 mm 3 mps 674 mmHg 69%
    22:00 +4°C° 0 mm 3 mps 674 mmHg 72%
    23:00 +3°C° 0 mm 3 mps 674 mmHg 76%

    Day after tomorrow, 25 February, Monday

    Time Temperature Precipitation Wind Pressure Humidity
    00:00 +3°C° 0 mm 3 mps 674 mmHg 78%
    01:00 +2°C° 0 mm 3 mps 674 mmHg 80%
    02:00 +2°C° 0 mm 3 mps 674 mmHg 82%
    03:00 +2°C° 0 mm 3 mps 674 mmHg 83%
    04:00 +1°C° 0 mm 3 mps 673 mmHg 85%
    05:00 +2°C° 0 mm 2 mps 673 mmHg 86%
    06:00 +1°C° 0 mm 3 mps 674 mmHg 82%
    07:00 +2°C° 0 mm 3 mps 674 mmHg 79%
    08:00 +2°C° 0 mm 3 mps 674 mmHg 75%
    09:00 +4°C° 0 mm 3 mps 674 mmHg 67%
    10:00 +7°C° 0 mm 3 mps 674 mmHg 59%
    11:00 +9°C° 0 mm 3 mps 674 mmHg 51%
    12:00 +9°C° 0 mm 3 mps 674 mmHg 47%
    13:00 +10°C° 0 mm 4 mps 673 mmHg 43%
    14:00 +11°C° 0 mm 4 mps 673 mmHg 40%
    15:00 +11°C° 0 mm 4 mps 672 mmHg 42%
    16:00 +10°C° 0 mm 4 mps 672 mmHg 44%
    17:00 +10°C° 0 mm 4 mps 672 mmHg 46%
    18:00 +8°C° 0 mm 4 mps 672 mmHg 52%
    19:00 +6°C° 0 mm 4 mps 671 mmHg 57%
    20:00 +5°C° 0 mm 4 mps 671 mmHg 63%
    21:00 +5°C° 0 mm 4 mps 671 mmHg 66%
    22:00 +4°C° 0 mm 4 mps 670 mmHg 70%
    23:00 +3°C° 0 mm 3 mps 670 mmHg 73%

    26 February, Tuesday

    Time Temperature Precipitation Wind Pressure Humidity
    00:00 +3°C° 0 mm 3 mps 670 mmHg 75%
    01:00 +2°C° 0 mm 3 mps 669 mmHg 77%
    02:00 +2°C° 0 mm 3 mps 669 mmHg 79%
    03:00 +2°C° 0 mm 3 mps 668 mmHg 81%
    04:00 +1°C° 0 mm 3 mps 668 mmHg 83%
    05:00 +1°C° 0 mm 3 mps 667 mmHg 85%
    06:00 +1°C° 0 mm 3 mps 667 mmHg 83%
    07:00 0°C° 0 mm 4 mps 667 mmHg 82%
    08:00 +1°C° 0 mm 4 mps 667 mmHg 80%
    09:00 +2°C° 0 mm 5 mps 666 mmHg 74%
    10:00 +3°C° 0 mm 5 mps 666 mmHg 69%
    11:00 +5°C° 0 mm 5 mps 666 mmHg 63%
    12:00 +6°C° 0.1 mm 5 mps 666 mmHg 61%
    13:00 +5°C° 0.1 mm 6 mps 665 mmHg 58%
    14:00 +7°C° 0.1 mm 6 mps 665 mmHg 56%
    15:00 +5°C° 0 mm 6 mps 665 mmHg 55%
    16:00 +5°C° 0 mm 6 mps 664 mmHg 54%
    17:00 +5°C° 0 mm 5 mps 664 mmHg 54%
    18:00 +3°C° 0 mm 5 mps 664 mmHg 57%
    19:00 +3°C° 0 mm 4 mps 664 mmHg 60%
    20:00 +2°C° 0 mm 3 mps 664 mmHg 63%
    21:00 +2°C° 0 mm 2 mps 664 mmHg 66%
    22:00 +2°C° 0 mm 2 mps 664 mmHg 70%
    23:00 +2°C° 0 mm 1 mps 664 mmHg 73%

    27 February, Wednesday

    Time Temperature Precipitation Wind Pressure Humidity
    00:00 +2°C° 0 mm 1 mps 664 mmHg 72%
    01:00 +1°C° 0 mm 2 mps 664 mmHg 72%
    02:00 +1°C° 0 mm 2 mps 664 mmHg 71%
    03:00 0°C° 0 mm 3 mps 664 mmHg 71%
    04:00 -2°C° 0 mm 4 mps 664 mmHg 71%
    05:00 -2°C° 0 mm 4 mps 664 mmHg 71%
    06:00 -2°C° 0 mm 4 mps 664 mmHg 70%
    07:00 -2°C° 0 mm 4 mps 664 mmHg 70%
    08:00 -2°C° 0 mm 4 mps 664 mmHg 70%
    09:00 -1°C° 0 mm 4 mps 664 mmHg 64%
    10:00 0°C° 0 mm 4 mps 664 mmHg 59%
    11:00 +1°C° 0 mm 4 mps 664 mmHg 53%
    12:00 +1°C° 0.1 mm 4 mps 664 mmHg 54%
    13:00 +1°C° 0.1 mm 5 mps 664 mmHg 54%
    14:00 +2°C° 0.1 mm 5 mps 664 mmHg 54%
    15:00 +1°C° 0.1 mm 5 mps 664 mmHg 55%
    16:00 +1°C° 0.1 mm 5 mps 664 mmHg 56%
    17:00 +1°C° 0.1 mm 5 mps 664 mmHg 57%
    18:00 0°C° 0 mm 5 mps 664 mmHg 59%
    19:00 -1°C° 0 mm 4 mps 665 mmHg 62%
    20:00 -2°C° 0 mm 4 mps 665 mmHg 65%
    21:00 -2°C° 0 mm 4 mps 665 mmHg 68%
    22:00 -2°C° 0 mm 3 mps 666 mmHg 72%
    23:00 -2°C° 0 mm 3 mps 666 mmHg 76%

    28 February, Thursday

    Time Temperature Precipitation Wind Pressure Humidity
    00:00 -4°C° 0 mm 3 mps 666 mmHg 76%
    01:00 -4°C° 0 mm 3 mps 666 mmHg 76%
    02:00 -3°C° 0 mm 2 mps 666 mmHg 76%
    03:00 -3°C° 0 mm 2 mps 666 mmHg 76%
    04:00 -4°C° 0 mm 2 mps 666 mmHg 75%
    05:00 -4°C° 0 mm 2 mps 666 mmHg 75%
    06:00 -3°C° 0 mm 2 mps 667 mmHg 71%
    07:00 -3°C° 0 mm 2 mps 667 mmHg 67%
    08:00 -3°C° 0 mm 2 mps 667 mmHg 63%
    09:00 -2°C° 0 mm 3 mps 667 mmHg 58%
    10:00 -1°C° 0 mm 3 mps 667 mmHg 54%
    11:00 -1°C° 0 mm 4 mps 667 mmHg 49%
    12:00 0°C° 0 mm 4 mps 667 mmHg 46%
    13:00 +1°C° 0 mm 4 mps 667 mmHg 44%
    14:00 +3°C° 0 mm 4 mps 666 mmHg 42%
    15:00 +1°C° 0 mm 4 mps 666 mmHg 45%
    16:00 +1°C° 0 mm 4 mps 666 mmHg 47%
    17:00 +2°C° 0 mm 3 mps 666 mmHg 50%
    18:00 +1°C° 0 mm 3 mps 667 mmHg 55%
    19:00 0°C° 0 mm 3 mps 667 mmHg 60%
    20:00 -1°C° 0 mm 3 mps 667 mmHg 65%
    21:00 -1°C° 0 mm 3 mps 667 mmHg 66%
    22:00 -1°C° 0 mm 3 mps 667 mmHg 67%
    23:00 -1°C° 0 mm 3 mps 667 mmHg 68%
    Show more